SCOUT A R/B, 1865

Orbit data source: Space-Track

SCOUT A R/B, 1865 is space debris in LEO originally from a launch on Wed, 22 Dec 1965 UTC launched from the Air Force Western Test Range (AFWTR). Debris objects in space refer to the collection of defunct objects orbiting the Earth. Examples of debris include non-operational satellites, rocket bodies, and fragments generated from explosions, collisions, or faulty payload assembly.

Loading next visibility...
Identifier
1865, 1965-109B
Orbit
LEO
Country
Flag of USUS
Related business
Manufacturer
ABL
Mission
Spacecraft
Bus & Motor
ALTAIR, Unknown motor
Mass
33 kg wet, 33 kg dry
Launch date (UTC)
1965-12-22 (61 years ago)
Launch vehicle
Unknown
Launch site
Air Force Western Test Range (AFWTR)
Object type
Payload
Rocket body
Debris
Shape & HBR
Unknown
Radar Cross Section
Medium (>0.1 m² and <1 m²)

Expand to show TLE details & history
Last TLE update: 8 hours ago

TLE from 8 hours ago
0 SCOUT A R/B
1 01865U 65109B   26178.27061877  .00000109  00000-0  94784-4 0  9999
2 01865  89.0707 248.0537 0109821 315.7855  43.4573 13.76835301 35020
Epoch: 2026-06-27T06:29Z
TLE epoch observation values (Epoch: 2026-06-27T06:29:41.461Z)
Latitude
-0.00003°
Longitude
-124.75623°
Altitude
919.919 km
Speed
7.421 km/s
True Right ascension
16h 32m 12s
True Declination
0° 00' 00"
Sunlit
Object was in full shadow at epoch
Visualization orbit readout
Latitude
Unknown
Longitude
Unknown
Altitude
Unknown
Speed
Unknown
Apparent Right ascension
Unknown
Apparent Declination
Unknown
Sunlit
N/A
Visualization observer readout
Local Sidereal Time
01:57:15
Azimuth
Unknown
Elevation
Unknown
Doppler factor
Unknown
Orbital elements
Apogee altitude
1,052.867 km
Perigee altitude
891.424 km
Semi-major axis
7,350.283 km
Eccentricity
0.01098
Inclination
89.0707°
RAAN
248.0537°
Arg. of periapsis
315.7855°
True anomaly
44.33156°
Mean anomaly
43.4573°
Eccentric anomaly
43.89356°
Mean motion
3.44419 °/min
Orbital period
104.52 mins
BSTAR
0.000094784
Loading maneuver chart data...
Computing Atmospheric mass density...
Loading historical data...
Loading historical data...
Loading historical data...
Loading historical data...
Loading historical data...
Loading historical data...
Loading historical data...

Documentation

Showing up to 5 results
|